Home > Weather > Lahore > Past weeks

Flag for Pakistan Weather for the Past 2 Weeks in Lahore, Pakistan

Now
88 °F

Haze.


Feels Like: 85 °F
Forecast: 75 / 108 °F
Wind: No wind

Location: Lahore Airport

Current Time: May 1, 2016 at 12:23:56 AM

Latest Report: Apr 30, 2016 at 11:55 PM


Visibility: 2 mi

Pressure: 29.68 "Hg

Humidity: 27%

Dew Point: 50 °F

Location of LahoreLocation

Historic Weather in Lahore — Graph

°F

Lahore Temperature Yesterday

Maximum temperature yesterday: 106 °F (at 1:55 PM)
Minimum temperature yesterday: 75 °F (at 5:30 AM)
Average temperature yesterday: 88 °F

High & Low Weather Summary for the Past Weeks

 TemperatureHumidityPressure
High106 °F (Apr 30, 1:55 PM)100% (Apr 21, 8:55 PM)30.01 "Hg (Apr 21, 8:55 PM)
Low68 °F (Apr 27, 1:55 AM)9% (Apr 30, 1:55 PM)29.56 "Hg (Apr 17, 2:00 AM)
Average87 °F33%29.71 "Hg
* Reported Apr 15 10:25 PM — Apr 30 10:55 PM, Lahore, Weather by CustomWeather, © 2016

Note: Actual official high and low records may vary slightly from our data, if they occured in-between our weather recording intervals... More about our weather records

Advertising

Lahore Weather History for the Previous 24 Hours

Scroll right to see more
 ConditionsComfort  
Time TempWeatherWind HumidityBarometerVisibility
10:55 PM
Sat, Apr 30
90 °FHaze.No wind26%29.68 "Hg2 mi
9:55 PM91 °FHaze.7 mph23%29.68 "Hg2 mi
7:55 PM95 °FHaze.5 mph18%29.68 "Hg2 mi
1:55 PM106 °FClear.12 mph9%29.68 "Hg6 mi
1:25 PM104 °FClear.10 mph10%29.71 "Hg5 mi
12:55 PM104 °FClear.9 mph10%29.71 "Hg4 mi
11:55 AM104 °FHaze.9 mph12%29.74 "Hg3 mi
11:25 AM102 °FHaze.8 mph12%29.74 "Hg3 mi
10:55 AM100 °FHaze.9 mph13%29.74 "Hg2 mi
10:25 AM99 °FDuststorm.6 mph17%29.74 "Hg1 mi
9:55 AM97 °FHaze.5 mph18%29.77 "Hg2 mi
9:25 AM93 °FHaze.3 mph21%29.77 "Hg2 mi
8:55 AM90 °FHaze.No wind24%29.74 "Hg2 mi
8:25 AM86 °FHaze.5 mph33%29.74 "Hg1 mi
8:00 AM82 °FHaze.No wind37%29.74 "Hg1 mi
7:00 AM77 °FHaze.No wind44%29.74 "Hg1 mi
6:30 AM75 °FHaze.No wind44%29.74 "Hg1 mi
6:00 AM75 °FHaze.3 mph44%29.74 "Hg1 mi
5:30 AM75 °FHaze.No wind47%29.71 "Hg2 mi
4:55 AM77 °FHaze.3 mph42%29.71 "Hg2 mi
3:55 AM79 °FHaze.5 mph42%29.71 "Hg2 mi
3:30 AM81 °FHaze.No wind42%29.71 "Hg2 mi
2:55 AM81 °FHaze.No wind42%29.71 "Hg2 mi
2:30 AM81 °FHaze.No wind39%29.71 "Hg2 mi
1:55 AM82 °FHaze.No wind37%29.71 "Hg2 mi
1:25 AM82 °FHaze.No wind37%29.71 "Hg2 mi
12:55 AM82 °FHaze.No wind37%29.71 "Hg2 mi
12:19 AM84 °FHaze.No wind33%29.71 "Hg2 mi
Weather by CustomWeather, © 2016

See weather overviewHow to use our weather pages